BAW17R EGLL-KJFK

Flight info

Callsign BAW17R
Flight time N/A
Altitude 36000
Route CPT5J CPT L9 BUCGO DCT FELCA DCT OFSOX DCT BANBA DCT TOBOR/M082F360 DCT 53N020W 53N030W 5230N04000W 50N050W DCT ELSIR/N0465F360 N402C ALLEX DCT ENE PARCH4
Aircraft B772/H-VGDW/C

Departure

Time 2026-05-06 07:16
Airport London Heathrow Airport (EGLL)

Arrival

Time N/A
Airport John F. Kennedy International Airport (KJFK)
Time Latitude Longitude Altitude Speed Heading
2026-05-06 06:33 51.47133 -0.48020 85 ft 0 kts 270°
2026-05-06 07:04 51.47133 -0.48019 85 ft 1 kts 270°
2026-05-06 07:04 51.47133 -0.47996 85 ft 2 kts 270°
2026-05-06 07:04 51.47133 -0.47972 85 ft 2 kts 270°
2026-05-06 07:04 51.47133 -0.47949 85 ft 2 kts 270°
2026-05-06 07:05 51.47133 -0.47924 85 ft 2 kts 265°
2026-05-06 07:05 51.47137 -0.47902 84 ft 2 kts 237°
2026-05-06 07:05 51.47147 -0.47884 84 ft 2 kts 216°
2026-05-06 07:05 51.47160 -0.47873 84 ft 2 kts 194°
2026-05-06 07:06 51.47175 -0.47871 84 ft 2 kts 177°
2026-05-06 07:06 51.47190 -0.47872 84 ft 2 kts 179°
2026-05-06 07:06 51.47197 -0.47872 84 ft 0 kts 180°
2026-05-06 07:10 51.47196 -0.47872 84 ft 0 kts 180°
2026-05-06 07:10 51.47178 -0.47872 84 ft 5 kts 180°
2026-05-06 07:10 51.47139 -0.47872 84 ft 5 kts 179°
2026-05-06 07:11 51.47097 -0.47871 85 ft 6 kts 180°
2026-05-06 07:11 51.47042 -0.47870 86 ft 8 kts 180°
2026-05-06 07:11 51.46975 -0.47869 87 ft 10 kts 180°
2026-05-06 07:11 51.46895 -0.47869 87 ft 11 kts 180°
2026-05-06 07:12 51.46827 -0.47868 87 ft 9 kts 180°
2026-05-06 07:12 51.46759 -0.47867 87 ft 10 kts 180°
2026-05-06 07:12 51.46686 -0.47869 87 ft 8 kts 191°
2026-05-06 07:12 51.46653 -0.47939 87 ft 9 kts 268°
2026-05-06 07:13 51.46652 -0.48050 87 ft 11 kts 270°
2026-05-06 07:13 51.46651 -0.48215 86 ft 18 kts 270°
2026-05-06 07:13 51.46651 -0.48390 84 ft 11 kts 270°
2026-05-06 07:13 51.46651 -0.48521 84 ft 11 kts 270°
2026-05-06 07:14 51.46651 -0.48633 84 ft 9 kts 270°
2026-05-06 07:14 51.46647 -0.48712 84 ft 6 kts 250°
2026-05-06 07:14 51.46611 -0.48758 84 ft 7 kts 203°
2026-05-06 07:14 51.46560 -0.48783 84 ft 8 kts 190°
2026-05-06 07:15 51.46503 -0.48768 84 ft 8 kts 146°
2026-05-06 07:15 51.46478 -0.48678 84 ft 9 kts 92°
2026-05-06 07:15 51.46478 -0.48467 84 ft 42 kts 90°
2026-05-06 07:15 51.46482 -0.47629 87 ft 105 kts 90°
2026-05-06 07:16 51.46487 -0.46155 91 ft 154 kts 90°
2026-05-06 07:16 51.46498 -0.44278 367 ft 173 kts 88°
2026-05-06 07:16 51.46524 -0.42350 1008 ft 176 kts 87°
2026-05-06 07:16 51.46661 -0.40376 1438 ft 183 kts 79°
2026-05-06 07:17 51.46769 -0.38377 1979 ft 180 kts 90°
2026-05-06 07:17 51.46584 -0.36335 2230 ft 196 kts 110°
2026-05-06 07:17 51.45650 -0.34567 2422 ft 223 kts 146°
2026-05-06 07:17 51.44068 -0.33805 2579 ft 249 kts 180°
2026-05-06 07:18 51.42361 -0.34494 2932 ft 263 kts 209°
2026-05-06 07:18 51.40861 -0.36285 3352 ft 272 kts 220°
2026-05-06 07:18 51.39556 -0.38454 3833 ft 274 kts 241°
2026-05-06 07:18 51.38993 -0.41315 4347 ft 272 kts 270°
2026-05-06 07:19 51.39206 -0.44264 4956 ft 266 kts 284°
2026-05-06 07:19 51.39578 -0.47146 5472 ft 268 kts 284°
2026-05-06 07:19 51.39964 -0.50090 5898 ft 273 kts 283°
2026-05-06 07:19 51.40357 -0.53087 6445 ft 273 kts 283°
2026-05-06 07:20 51.40741 -0.56020 6968 ft 273 kts 283°
2026-05-06 07:20 51.41136 -0.59045 7444 ft 276 kts 283°
2026-05-06 07:20 51.41525 -0.62033 7967 ft 276 kts 283°
2026-05-06 07:20 51.41920 -0.65068 8424 ft 279 kts 282°
2026-05-06 07:21 51.42314 -0.68107 8861 ft 282 kts 282°
2026-05-06 07:21 51.42714 -0.71195 9372 ft 283 kts 282°
2026-05-06 07:21 51.43112 -0.74282 9854 ft 284 kts 282°
2026-05-06 07:21 51.43512 -0.77385 10243 ft 288 kts 282°
2026-05-06 07:22 51.43927 -0.80605 10316 ft 304 kts 282°
2026-05-06 07:22 51.44360 -0.83974 10355 ft 319 kts 282°
2026-05-06 07:22 51.44816 -0.87540 10370 ft 333 kts 282°
2026-05-06 07:22 51.45295 -0.91286 10377 ft 346 kts 282°
2026-05-06 07:23 51.45778 -0.95082 10386 ft 357 kts 282°
2026-05-06 07:23 51.46281 -0.99047 10516 ft 364 kts 282°
2026-05-06 07:23 51.46787 -1.03050 10814 ft 365 kts 282°
2026-05-06 07:23 51.47283 -1.06990 11151 ft 365 kts 282°
2026-05-06 07:24 51.47785 -1.10986 11484 ft 366 kts 282°
2026-05-06 07:24 51.48292 -1.15026 11822 ft 366 kts 283°
2026-05-06 07:24 51.49012 -1.18919 12144 ft 367 kts 292°
2026-05-06 07:24 51.50156 -1.22533 12464 ft 367 kts 303°
2026-05-06 07:25 51.51714 -1.25804 12782 ft 369 kts 313°
2026-05-06 07:25 51.53550 -1.28678 13091 ft 372 kts 317°
2026-05-06 07:25 51.55440 -1.31513 13430 ft 374 kts 317°
2026-05-06 07:25 51.57332 -1.34359 13775 ft 376 kts 317°
2026-05-06 07:26 51.59240 -1.37255 14118 ft 377 kts 315°
2026-05-06 07:26 51.60938 -1.40485 14445 ft 380 kts 305°
2026-05-06 07:26 51.62295 -1.44129 14794 ft 382 kts 298°
2026-05-06 07:26 51.63559 -1.47895 15168 ft 384 kts 298°
2026-05-06 07:27 51.64831 -1.51712 15546 ft 386 kts 298°
2026-05-06 07:27 51.66100 -1.55525 15915 ft 389 kts 298°
2026-05-06 07:27 51.67360 -1.59320 16290 ft 391 kts 298°
2026-05-06 07:27 51.68647 -1.63198 16663 ft 393 kts 297°
2026-05-06 07:28 51.69821 -1.67213 17030 ft 394 kts 289°
2026-05-06 07:28 51.70565 -1.71446 17374 ft 396 kts 280°
2026-05-06 07:28 51.71276 -1.80272 18122 ft 399 kts 276°
2026-05-06 07:29 51.71596 -1.84701 18487 ft 401 kts 276°
2026-05-06 07:29 51.71918 -1.89183 18849 ft 403 kts 276°
2026-05-06 07:29 51.72241 -1.93709 19240 ft 405 kts 276°
2026-05-06 07:29 51.72561 -1.98206 19620 ft 406 kts 276°
2026-05-06 07:30 51.72879 -2.02718 19976 ft 408 kts 276°
2026-05-06 07:30 51.73199 -2.07285 20322 ft 411 kts 276°
2026-05-06 07:30 51.73518 -2.11844 20670 ft 413 kts 276°
2026-05-06 07:30 51.73838 -2.16466 21021 ft 415 kts 276°
2026-05-06 07:31 51.74160 -2.21125 21365 ft 417 kts 276°
2026-05-06 07:31 51.74477 -2.25753 21700 ft 419 kts 276°
2026-05-06 07:31 51.74798 -2.30462 22041 ft 422 kts 276°
2026-05-06 07:31 51.75114 -2.35129 22373 ft 424 kts 276°
2026-05-06 07:32 51.75434 -2.39880 22706 ft 426 kts 276°
2026-05-06 07:32 51.75753 -2.44652 23037 ft 428 kts 276°
2026-05-06 07:32 51.76073 -2.49447 23391 ft 430 kts 276°
2026-05-06 07:32 51.76386 -2.54190 23729 ft 432 kts 276°
2026-05-06 07:33 51.76706 -2.59057 24038 ft 434 kts 276°
2026-05-06 07:33 51.77022 -2.63905 24343 ft 437 kts 276°
2026-05-06 07:33 51.77339 -2.68793 24673 ft 439 kts 275°
2026-05-06 07:33 51.77655 -2.73696 24987 ft 441 kts 275°
2026-05-06 07:34 51.77973 -2.78673 25301 ft 444 kts 275°
2026-05-06 07:34 51.78287 -2.83621 25619 ft 446 kts 275°
2026-05-06 07:34 51.78603 -2.88623 25933 ft 448 kts 275°
2026-05-06 07:34 51.78914 -2.93585 26217 ft 450 kts 275°
2026-05-06 07:35 51.79230 -2.98655 26488 ft 453 kts 276°
2026-05-06 07:35 51.79545 -3.03747 26768 ft 455 kts 276°
2026-05-06 07:35 51.79855 -3.08803 27044 ft 457 kts 276°
2026-05-06 07:35 51.80168 -3.13949 27316 ft 459 kts 276°
2026-05-06 07:36 51.80478 -3.19067 27578 ft 461 kts 276°
2026-05-06 07:36 51.80791 -3.24270 27838 ft 463 kts 276°
2026-05-06 07:36 51.81097 -3.29419 28091 ft 465 kts 276°
2026-05-06 07:36 51.81406 -3.34634 28359 ft 466 kts 276°
2026-05-06 07:37 51.81714 -3.39877 28607 ft 468 kts 276°
2026-05-06 07:37 51.82019 -3.45114 28833 ft 470 kts 276°
2026-05-06 07:37 51.82321 -3.50355 29053 ft 472 kts 276°
2026-05-06 07:37 51.82737 -3.55576 29260 ft 473 kts 281°
2026-05-06 07:38 51.83399 -3.60801 29532 ft 473 kts 282°
2026-05-06 07:38 51.84075 -3.65961 29890 ft 471 kts 282°
2026-05-06 07:38 51.84753 -3.71153 30272 ft 469 kts 282°
2026-05-06 07:38 51.85419 -3.76289 30600 ft 468 kts 282°
2026-05-06 07:39 51.86081 -3.81419 30889 ft 468 kts 282°
2026-05-06 07:39 51.86744 -3.86587 31179 ft 468 kts 282°
2026-05-06 07:39 51.87397 -3.91692 31481 ft 467 kts 282°
2026-05-06 07:39 51.88054 -3.96857 31802 ft 466 kts 282°
2026-05-06 07:40 51.88704 -4.01987 32109 ft 466 kts 282°
2026-05-06 07:40 51.89351 -4.07115 32408 ft 465 kts 282°
2026-05-06 07:40 51.89986 -4.12171 32705 ft 465 kts 282°
2026-05-06 07:40 51.90628 -4.17300 33007 ft 464 kts 281°
2026-05-06 07:41 51.91266 -4.22407 33307 ft 464 kts 281°
2026-05-06 07:41 51.91905 -4.27555 33606 ft 463 kts 281°
2026-05-06 07:41 51.92529 -4.32595 33891 ft 463 kts 281°
2026-05-06 07:41 51.93157 -4.37693 34179 ft 462 kts 281°
2026-05-06 07:42 51.93784 -4.42795 34457 ft 461 kts 281°
2026-05-06 07:42 51.94411 -4.47926 34724 ft 461 kts 281°
2026-05-06 07:42 51.95027 -4.52976 34981 ft 461 kts 281°
2026-05-06 07:42 51.95639 -4.58022 35236 ft 460 kts 281°
2026-05-06 07:43 51.96260 -4.63154 35488 ft 459 kts 281°
2026-05-06 07:43 51.96866 -4.68188 35723 ft 459 kts 281°
2026-05-06 07:43 51.97471 -4.73225 35951 ft 458 kts 281°
2026-05-06 07:43 51.98083 -4.78345 36067 ft 459 kts 281°
2026-05-06 07:44 51.99286 -4.88469 36074 ft 458 kts 281°
2026-05-06 07:44 52.00482 -4.98608 36076 ft 457 kts 280°
2026-05-06 07:45 52.01660 -5.08677 36074 ft 455 kts 280°
2026-05-06 07:45 52.02618 -5.18775 36069 ft 455 kts 272°
2026-05-06 07:46 52.02218 -5.29020 36073 ft 456 kts 264°
2026-05-06 07:46 52.01530 -5.39203 36073 ft 455 kts 264°
2026-05-06 07:47 52.00821 -5.49375 36072 ft 455 kts 264°
2026-05-06 07:47 52.00094 -5.59602 36072 ft 455 kts 264°
2026-05-06 07:48 51.99359 -5.69772 36074 ft 457 kts 263°
2026-05-06 07:48 51.98611 -5.79960 36074 ft 456 kts 263°
2026-05-06 07:49 51.97853 -5.90174 36092 ft 455 kts 263°
2026-05-06 07:49 51.97085 -6.00380 36094 ft 456 kts 263°
2026-05-06 07:50 51.96315 -6.10490 36100 ft 456 kts 263°
2026-05-06 07:50 51.95554 -6.20715 36105 ft 455 kts 266°
2026-05-06 07:51 51.95935 -6.30862 36119 ft 455 kts 279°
2026-05-06 07:51 51.96960 -6.41000 36114 ft 455 kts 279°
2026-05-06 07:52 51.97974 -6.51134 36113 ft 455 kts 279°
2026-05-06 07:52 51.98967 -6.61219 36113 ft 455 kts 279°
2026-05-06 07:53 51.99956 -6.71385 36116 ft 455 kts 278°
2026-05-06 07:53 52.00926 -6.81479 36116 ft 454 kts 278°
2026-05-06 07:54 52.01889 -6.91593 36116 ft 454 kts 278°
2026-05-06 07:54 52.02835 -7.01637 36115 ft 453 kts 278°
2026-05-06 07:55 52.03778 -7.11739 36115 ft 453 kts 278°
2026-05-06 07:55 52.04714 -7.21868 36114 ft 453 kts 278°
2026-05-06 07:56 52.05634 -7.31921 36114 ft 453 kts 278°
2026-05-06 07:56 52.06555 -7.42081 36114 ft 453 kts 278°
2026-05-06 07:57 52.07457 -7.52138 36113 ft 453 kts 278°
2026-05-06 07:57 52.08361 -7.62305 36113 ft 453 kts 278°
2026-05-06 07:58 52.09248 -7.72394 36116 ft 453 kts 278°
2026-05-06 07:58 52.10133 -7.82564 36116 ft 453 kts 278°
2026-05-06 07:59 52.11004 -7.92672 36116 ft 453 kts 278°
2026-05-06 07:59 52.11868 -8.02801 36115 ft 453 kts 278°
2026-05-06 08:00 52.12724 -8.12952 36115 ft 453 kts 278°
2026-05-06 08:00 52.13574 -8.23130 36115 ft 453 kts 278°
2026-05-06 08:01 52.14407 -8.33213 36114 ft 453 kts 278°
2026-05-06 08:01 52.15236 -8.43356 36115 ft 453 kts 278°
2026-05-06 08:02 52.16058 -8.53534 36114 ft 452 kts 278°
2026-05-06 08:02 52.16865 -8.63627 36114 ft 452 kts 277°
2026-05-06 08:03 52.17672 -8.73838 36118 ft 452 kts 277°
2026-05-06 08:03 52.18465 -8.83980 36119 ft 452 kts 277°
2026-05-06 08:04 52.19245 -8.94076 36119 ft 452 kts 277°
2026-05-06 08:04 52.20022 -9.04247 36117 ft 451 kts 277°
2026-05-06 08:05 52.20786 -9.14367 36115 ft 451 kts 277°
2026-05-06 08:05 52.21541 -9.24482 36114 ft 451 kts 277°
2026-05-06 08:06 52.22288 -9.34603 36114 ft 451 kts 277°
2026-05-06 08:06 52.23029 -9.44775 36114 ft 452 kts 277°
2026-05-06 08:07 52.23760 -9.54933 36113 ft 452 kts 277°
2026-05-06 08:07 52.24484 -9.65110 36113 ft 452 kts 276°
2026-05-06 08:08 52.25201 -9.75318 36116 ft 452 kts 276°
2026-05-06 08:08 52.25904 -9.85461 36116 ft 452 kts 276°
2026-05-06 08:09 52.26602 -9.95656 36116 ft 452 kts 276°
2026-05-06 08:09 52.27289 -10.05825 36115 ft 452 kts 276°
2026-05-06 08:10 52.27971 -10.16047 36115 ft 452 kts 276°
2026-05-06 08:10 52.28637 -10.26176 36114 ft 452 kts 276°
2026-05-06 08:11 52.29298 -10.36354 36114 ft 452 kts 276°
2026-05-06 08:11 52.29951 -10.46544 36114 ft 452 kts 276°
2026-05-06 08:12 52.30595 -10.56741 36113 ft 452 kts 276°
2026-05-06 08:12 52.31233 -10.66973 36115 ft 452 kts 275°
2026-05-06 08:13 52.31858 -10.77153 36116 ft 452 kts 275°
2026-05-06 08:13 52.32476 -10.87371 36116 ft 452 kts 275°
2026-05-06 08:14 52.33084 -10.97557 36116 ft 452 kts 276°
2026-05-06 08:14 52.33685 -11.07772 36115 ft 452 kts 276°
2026-05-06 08:15 52.34279 -11.18029 36115 ft 452 kts 276°
2026-05-06 08:15 52.34858 -11.28196 36114 ft 452 kts 276°
2026-05-06 08:16 52.35435 -11.38455 36115 ft 454 kts 276°
2026-05-06 08:16 52.36000 -11.48682 36114 ft 453 kts 276°
2026-05-06 08:17 52.36559 -11.58962 36114 ft 453 kts 276°
2026-05-06 08:17 52.37107 -11.69206 36116 ft 453 kts 275°
2026-05-06 08:18 52.37646 -11.79439 36116 ft 453 kts 275°
2026-05-06 08:18 52.38177 -11.89696 36116 ft 453 kts 275°
2026-05-06 08:19 52.38700 -11.99984 36115 ft 453 kts 275°
2026-05-06 08:19 52.39215 -12.10275 36121 ft 453 kts 275°
2026-05-06 08:20 52.39717 -12.20503 36130 ft 453 kts 275°
2026-05-06 08:20 52.40212 -12.30765 36135 ft 454 kts 275°
2026-05-06 08:21 52.40698 -12.41029 36135 ft 453 kts 275°
2026-05-06 08:21 52.41177 -12.51317 36134 ft 453 kts 275°
2026-05-06 08:22 52.41644 -12.61571 36134 ft 454 kts 275°
2026-05-06 08:22 52.42106 -12.71896 36137 ft 454 kts 274°
2026-05-06 08:23 52.42558 -12.82187 36137 ft 453 kts 274°
2026-05-06 08:23 52.42999 -12.92444 36136 ft 453 kts 274°
2026-05-06 08:24 52.43430 -13.02702 36136 ft 453 kts 274°
2026-05-06 08:24 52.43854 -13.12970 36136 ft 452 kts 274°
2026-05-06 08:25 52.44269 -13.23251 36135 ft 454 kts 274°
2026-05-06 08:25 52.44675 -13.33548 36135 ft 453 kts 274°
2026-05-06 08:26 52.45073 -13.43839 36135 ft 453 kts 274°
2026-05-06 08:26 52.45462 -13.54161 36134 ft 453 kts 274°
2026-05-06 08:27 52.45840 -13.64394 36134 ft 453 kts 274°
2026-05-06 08:27 52.46212 -13.74744 36137 ft 453 kts 273°
2026-05-06 08:28 52.46572 -13.85009 36137 ft 453 kts 273°
2026-05-06 08:28 52.46925 -13.95291 36136 ft 452 kts 273°
2026-05-06 08:29 52.47268 -14.05586 36137 ft 454 kts 273°
2026-05-06 08:29 52.47603 -14.15904 36135 ft 453 kts 274°
2026-05-06 08:30 52.47929 -14.26184 36135 ft 453 kts 274°
2026-05-06 08:30 52.48246 -14.36513 36135 ft 454 kts 274°
2026-05-06 08:31 52.48553 -14.46801 36135 ft 454 kts 274°
2026-05-06 08:31 52.48853 -14.57134 36134 ft 454 kts 274°
2026-05-06 08:32 52.49144 -14.67477 36136 ft 454 kts 273°
2026-05-06 08:32 52.49425 -14.77778 36137 ft 454 kts 273°
2026-05-06 08:33 52.49698 -14.88136 36136 ft 455 kts 273°
2026-05-06 08:33 52.49961 -14.98456 36136 ft 455 kts 273°
2026-05-06 08:34 52.51438 -15.13753 36136 ft 454 kts 283°
2026-05-06 08:35 52.52772 -15.23853 36135 ft 454 kts 283°
2026-05-06 08:35 52.54047 -15.34000 36134 ft 453 kts 282°
2026-05-06 08:36 52.55282 -15.44145 36135 ft 453 kts 282°
2026-05-06 08:36 52.56486 -15.54232 36134 ft 453 kts 282°
2026-05-06 08:37 52.57688 -15.64439 36134 ft 454 kts 282°
2026-05-06 08:37 52.58865 -15.74540 36136 ft 454 kts 281°
2026-05-06 08:38 52.60043 -15.84753 36136 ft 454 kts 281°
2026-05-06 08:38 52.61202 -15.94892 36136 ft 454 kts 281°
2026-05-06 08:39 52.62356 -16.05074 36135 ft 454 kts 282°
2026-05-06 08:39 52.63504 -16.15282 36135 ft 454 kts 282°
2026-05-06 08:40 52.64645 -16.25524 36135 ft 454 kts 282°
2026-05-06 08:40 52.65775 -16.35738 36134 ft 455 kts 282°
2026-05-06 08:41 52.66899 -16.45990 36134 ft 455 kts 282°
2026-05-06 08:41 52.68008 -16.56195 36133 ft 455 kts 282°
2026-05-06 08:42 52.69111 -16.66421 36134 ft 456 kts 281°
2026-05-06 08:42 52.70209 -16.76692 36135 ft 455 kts 282°
2026-05-06 08:43 52.71295 -16.86942 36135 ft 456 kts 282°
2026-05-06 08:43 52.72381 -16.97277 36135 ft 457 kts 282°
2026-05-06 08:44 52.73456 -17.07603 36134 ft 456 kts 282°
2026-05-06 08:44 52.74512 -17.17835 36134 ft 457 kts 282°
2026-05-06 08:45 52.75574 -17.28212 36133 ft 456 kts 282°
2026-05-06 08:45 52.76615 -17.38483 36134 ft 457 kts 282°
2026-05-06 08:46 52.77658 -17.48859 36133 ft 458 kts 282°
2026-05-06 08:46 52.78683 -17.59161 36133 ft 457 kts 282°
2026-05-06 08:47 52.79707 -17.69545 36135 ft 458 kts 281°
2026-05-06 08:47 52.80717 -17.79879 36134 ft 458 kts 281°
2026-05-06 08:48 52.81724 -17.90284 36134 ft 458 kts 281°
2026-05-06 08:48 52.82717 -18.00641 36134 ft 457 kts 282°
2026-05-06 08:49 52.83701 -18.11001 36133 ft 458 kts 282°
2026-05-06 08:49 52.84679 -18.21391 36133 ft 458 kts 282°
2026-05-06 08:50 52.85643 -18.31737 36133 ft 459 kts 282°
2026-05-06 08:50 52.86606 -18.42180 36132 ft 458 kts 282°
2026-05-06 08:51 52.87552 -18.52544 36132 ft 458 kts 282°
2026-05-06 08:51 52.88489 -18.62912 36132 ft 458 kts 282°
2026-05-06 08:52 52.89426 -18.73375 36133 ft 458 kts 282°
2026-05-06 08:52 52.90348 -18.83782 36133 ft 458 kts 282°
2026-05-06 08:53 52.91257 -18.94161 36132 ft 458 kts 282°
2026-05-06 08:53 52.92160 -19.04568 36136 ft 457 kts 282°
2026-05-06 08:54 52.93056 -19.15004 36145 ft 458 kts 282°
2026-05-06 08:54 52.93940 -19.25401 36152 ft 458 kts 282°
2026-05-06 08:55 52.94814 -19.35815 36152 ft 457 kts 282°
2026-05-06 08:55 52.95681 -19.46239 36151 ft 457 kts 282°
2026-05-06 08:56 52.96539 -19.56677 36151 ft 457 kts 282°
2026-05-06 08:56 52.97382 -19.67047 36151 ft 457 kts 281°
2026-05-06 08:57 52.98221 -19.77481 36152 ft 457 kts 281°
2026-05-06 08:57 52.99050 -19.87903 36151 ft 457 kts 281°
2026-05-06 08:58 52.99866 -19.98363 36152 ft 457 kts 280°
2026-05-06 08:58 53.00355 -20.08871 36162 ft 458 kts 278°
2026-05-06 08:59 53.00790 -20.19352 36170 ft 457 kts 278°
2026-05-06 08:59 53.01215 -20.29876 36171 ft 457 kts 278°
2026-05-06 09:00 53.01626 -20.40366 36171 ft 457 kts 278°
2026-05-06 09:00 53.02030 -20.50907 36170 ft 458 kts 278°
2026-05-06 09:01 53.02423 -20.61442 36170 ft 458 kts 278°
2026-05-06 09:01 53.02808 -20.71996 36173 ft 458 kts 277°
2026-05-06 09:02 53.03182 -20.82519 36172 ft 457 kts 277°
2026-05-06 09:02 53.03545 -20.93008 36173 ft 457 kts 277°
2026-05-06 09:03 53.03900 -21.03528 36182 ft 457 kts 277°
2026-05-06 09:03 53.04247 -21.14098 36190 ft 457 kts 277°
2026-05-06 09:04 53.04582 -21.24578 36191 ft 457 kts 277°
2026-05-06 09:04 53.04910 -21.35140 36192 ft 457 kts 277°
2026-05-06 09:05 53.05227 -21.45634 36191 ft 456 kts 277°
2026-05-06 09:05 53.05534 -21.56119 36191 ft 456 kts 277°
2026-05-06 09:06 53.05833 -21.66626 36191 ft 457 kts 277°
2026-05-06 09:06 53.06124 -21.77186 36193 ft 457 kts 277°
2026-05-06 09:07 53.06403 -21.87669 36192 ft 456 kts 277°
2026-05-06 09:07 53.06675 -21.98239 36192 ft 456 kts 277°
2026-05-06 09:08 53.06937 -22.08763 36192 ft 456 kts 276°
2026-05-06 09:08 53.07188 -22.19232 36192 ft 456 kts 276°
2026-05-06 09:09 53.07431 -22.29735 36191 ft 456 kts 276°
2026-05-06 09:09 53.07664 -22.40233 36191 ft 456 kts 276°
2026-05-06 09:10 53.07888 -22.50720 36191 ft 455 kts 276°
2026-05-06 09:10 53.08105 -22.61268 36191 ft 456 kts 276°
2026-05-06 09:11 53.08310 -22.71749 36193 ft 456 kts 275°
2026-05-06 09:11 53.08509 -22.82345 36199 ft 459 kts 272°
2026-05-06 09:12 53.08697 -22.92923 36206 ft 457 kts 271°
2026-05-06 09:12 53.08875 -23.03428 36215 ft 457 kts 271°
2026-05-06 09:13 53.09043 -23.13958 36218 ft 457 kts 271°
2026-05-06 09:13 53.09203 -23.24539 36218 ft 457 kts 271°
2026-05-06 09:14 53.09354 -23.35089 36218 ft 457 kts 271°
2026-05-06 09:14 53.09495 -23.45640 36218 ft 457 kts 271°
2026-05-06 09:15 53.09627 -23.56196 36217 ft 457 kts 271°
2026-05-06 09:15 53.09749 -23.66714 36218 ft 457 kts 270°
2026-05-06 09:16 53.09862 -23.77321 36220 ft 457 kts 270°
2026-05-06 09:16 53.09967 -23.87877 36219 ft 458 kts 270°
2026-05-06 09:17 53.10061 -23.98437 36218 ft 458 kts 270°
2026-05-06 09:17 53.10146 -24.08992 36227 ft 460 kts 270°
2026-05-06 09:18 53.10223 -24.19580 36244 ft 459 kts 270°
2026-05-06 09:18 53.10289 -24.30204 36257 ft 459 kts 270°
2026-05-06 09:19 53.10347 -24.40802 36258 ft 459 kts 270°
2026-05-06 09:19 53.10394 -24.51360 36257 ft 459 kts 270°
2026-05-06 09:20 53.10433 -24.61966 36257 ft 460 kts 270°
2026-05-06 09:20 53.10462 -24.72639 36259 ft 460 kts 269°
2026-05-06 09:21 53.10482 -24.83224 36259 ft 460 kts 269°
2026-05-06 09:21 53.10492 -24.93890 36258 ft 461 kts 269°
2026-05-06 09:22 53.10493 -25.04511 36275 ft 461 kts 269°
2026-05-06 09:22 53.10484 -25.15099 36311 ft 461 kts 269°
2026-05-06 09:23 53.10466 -25.25762 36339 ft 461 kts 269°
2026-05-06 09:23 53.10438 -25.36398 36339 ft 462 kts 269°
2026-05-06 09:24 53.10400 -25.47065 36339 ft 462 kts 269°
2026-05-06 09:24 53.10354 -25.57754 36338 ft 462 kts 268°
2026-05-06 09:25 53.10297 -25.68391 36340 ft 463 kts 268°
2026-05-06 09:25 53.10231 -25.79091 36340 ft 463 kts 268°
2026-05-06 09:26 53.10155 -25.89785 36339 ft 463 kts 268°
2026-05-06 09:26 53.10071 -26.00418 36339 ft 463 kts 268°
2026-05-06 09:27 53.09976 -26.11095 36339 ft 463 kts 268°
2026-05-06 09:27 53.09871 -26.21846 36339 ft 463 kts 268°
2026-05-06 09:28 53.09758 -26.32509 36339 ft 463 kts 268°
2026-05-06 09:28 53.09634 -26.43245 36338 ft 463 kts 267°
2026-05-06 09:29 53.09501 -26.53899 36338 ft 463 kts 267°
2026-05-06 09:29 53.09358 -26.64574 36338 ft 463 kts 267°
2026-05-06 09:30 53.09206 -26.75250 36339 ft 462 kts 266°
2026-05-06 09:30 53.09045 -26.85886 36339 ft 463 kts 266°
2026-05-06 09:31 53.08874 -26.96587 36339 ft 463 kts 266°
2026-05-06 09:31 53.08693 -27.07244 36339 ft 463 kts 266°
2026-05-06 09:32 53.08503 -27.17923 36339 ft 463 kts 266°
2026-05-06 09:32 53.08304 -27.28580 36339 ft 463 kts 266°
2026-05-06 09:33 53.08094 -27.39263 36338 ft 463 kts 266°
2026-05-06 09:33 53.07874 -27.49989 36338 ft 463 kts 266°
2026-05-06 09:34 53.07646 -27.60639 36338 ft 463 kts 266°
2026-05-06 09:34 53.07408 -27.71274 36339 ft 463 kts 266°
2026-05-06 09:35 53.07161 -27.81933 36339 ft 463 kts 266°
2026-05-06 09:35 53.06903 -27.92640 36339 ft 463 kts 266°
2026-05-06 09:36 53.06636 -28.03314 36339 ft 462 kts 265°
2026-05-06 09:36 53.06360 -28.13971 36339 ft 462 kts 265°
2026-05-06 09:37 53.06076 -28.24556 36338 ft 462 kts 265°
2026-05-06 09:37 53.05780 -28.35257 36338 ft 462 kts 265°
2026-05-06 09:38 53.05476 -28.45883 36338 ft 462 kts 265°
2026-05-06 09:38 53.05164 -28.56491 36338 ft 462 kts 265°
2026-05-06 09:39 53.04840 -28.67149 36339 ft 462 kts 265°
2026-05-06 09:39 53.04507 -28.77778 36339 ft 462 kts 265°
2026-05-06 09:40 53.04167 -28.88368 36339 ft 461 kts 265°
2026-05-06 09:40 53.03636 -29.04331 36339 ft 461 kts 265°
2026-05-06 09:41 53.03271 -29.14932 36338 ft 461 kts 265°
2026-05-06 09:41 53.02896 -29.25550 36338 ft 461 kts 265°
2026-05-06 09:42 53.02514 -29.36096 36338 ft 461 kts 265°
2026-05-06 09:42 53.02120 -29.46728 36338 ft 461 kts 265°
2026-05-06 09:43 53.01718 -29.57314 36338 ft 461 kts 265°
2026-05-06 09:43 53.01306 -29.67894 36339 ft 461 kts 264°
2026-05-06 09:44 53.00883 -29.78539 36339 ft 461 kts 264°
2026-05-06 09:44 53.00454 -29.89088 36339 ft 461 kts 264°
2026-05-06 09:45 53.00012 -29.99714 36338 ft 461 kts 264°
2026-05-06 09:45 52.99849 -30.10301 36338 ft 460 kts 268°
2026-05-06 09:46 52.99786 -30.20930 36338 ft 460 kts 268°
2026-05-06 09:46 52.99699 -30.31513 36338 ft 461 kts 268°
2026-05-06 09:47 52.99594 -30.42101 36338 ft 460 kts 268°
2026-05-06 09:47 52.99476 -30.52731 36337 ft 460 kts 267°
2026-05-06 09:48 52.99345 -30.63364 36337 ft 460 kts 267°
2026-05-06 09:48 52.99205 -30.73947 36339 ft 460 kts 266°
2026-05-06 09:49 52.99054 -30.84562 36339 ft 460 kts 266°
2026-05-06 09:49 52.98894 -30.95141 36339 ft 460 kts 266°
2026-05-06 09:50 52.98724 -31.05722 36333 ft 460 kts 266°
2026-05-06 09:50 52.98545 -31.16263 36324 ft 460 kts 266°
2026-05-06 09:51 52.98356 -31.26874 36318 ft 460 kts 266°
2026-05-06 09:51 52.98158 -31.37452 36318 ft 460 kts 266°
2026-05-06 09:52 52.97950 -31.48050 36317 ft 459 kts 266°
2026-05-06 09:52 52.97734 -31.58590 36317 ft 459 kts 266°
2026-05-06 09:53 52.97508 -31.69142 36319 ft 459 kts 266°
2026-05-06 09:53 52.97273 -31.79696 36319 ft 459 kts 266°
2026-05-06 09:54 52.97028 -31.90251 36318 ft 459 kts 266°
2026-05-06 09:54 52.96774 -32.00820 36318 ft 459 kts 266°
2026-05-06 09:55 52.96511 -32.11367 36318 ft 458 kts 266°
2026-05-06 09:55 52.96238 -32.21923 36318 ft 458 kts 266°
2026-05-06 09:56 52.95959 -32.32383 36318 ft 458 kts 266°
2026-05-06 09:56 52.95667 -32.42931 36318 ft 459 kts 266°
2026-05-06 09:57 52.95367 -32.53470 36317 ft 459 kts 266°
2026-05-06 09:57 52.95056 -32.64065 36317 ft 459 kts 266°
2026-05-06 09:58 52.94738 -32.74565 36319 ft 459 kts 265°
2026-05-06 09:58 52.94410 -32.85102 36319 ft 459 kts 265°
2026-05-06 09:59 52.94071 -32.95653 36319 ft 458 kts 265°
2026-05-06 09:59 52.93725 -33.06150 36318 ft 458 kts 265°
2026-05-06 10:00 52.93368 -33.16697 36318 ft 458 kts 265°
2026-05-06 10:00 52.93003 -33.27216 36318 ft 458 kts 265°
2026-05-06 10:01 52.92630 -33.37696 36318 ft 458 kts 265°
2026-05-06 10:01 52.92245 -33.48233 36317 ft 458 kts 265°
2026-05-06 10:02 52.91855 -33.58684 36317 ft 458 kts 265°
2026-05-06 10:02 52.91452 -33.69220 36319 ft 457 kts 265°
2026-05-06 10:03 52.91042 -33.79694 36319 ft 457 kts 265°
2026-05-06 10:03 52.90620 -33.90206 36319 ft 457 kts 265°
2026-05-06 10:04 52.90191 -34.00688 36319 ft 457 kts 265°
2026-05-06 10:04 52.89752 -34.11187 36321 ft 457 kts 265°
2026-05-06 10:05 52.89306 -34.21633 36321 ft 457 kts 265°
2026-05-06 10:05 52.88848 -34.32136 36321 ft 457 kts 265°
2026-05-06 10:06 52.88383 -34.42579 36320 ft 457 kts 265°
2026-05-06 10:06 52.87907 -34.53077 36320 ft 457 kts 265°
2026-05-06 10:07 52.87424 -34.63513 36320 ft 457 kts 265°
2026-05-06 10:07 52.86929 -34.74005 36322 ft 457 kts 264°
2026-05-06 10:08 52.86427 -34.84459 36322 ft 457 kts 264°
2026-05-06 10:08 52.85914 -34.94930 36322 ft 457 kts 264°
2026-05-06 10:09 52.85397 -35.05317 36323 ft 457 kts 264°
2026-05-06 10:09 52.84865 -35.15794 36323 ft 457 kts 264°
2026-05-06 10:10 52.84329 -35.26196 36322 ft 457 kts 264°
2026-05-06 10:10 52.83779 -35.36662 36322 ft 456 kts 264°
2026-05-06 10:11 52.83221 -35.47110 36322 ft 456 kts 264°
2026-05-06 10:11 52.82656 -35.57518 36322 ft 456 kts 264°
2026-05-06 10:12 52.82085 -35.67876 36323 ft 455 kts 264°
2026-05-06 10:12 52.81500 -35.78300 36324 ft 455 kts 264°
2026-05-06 10:13 52.80908 -35.88699 36323 ft 455 kts 264°
2026-05-06 10:13 52.80308 -35.99081 36323 ft 455 kts 264°
2026-05-06 10:14 52.79700 -36.09427 36312 ft 455 kts 264°
2026-05-06 10:14 52.79079 -36.19836 36293 ft 455 kts 264°
2026-05-06 10:15 52.78453 -36.30199 36279 ft 454 kts 264°
2026-05-06 10:15 52.77819 -36.40515 36279 ft 455 kts 264°
2026-05-06 10:16 52.77173 -36.50896 36278 ft 455 kts 264°
2026-05-06 10:16 52.76517 -36.61284 36278 ft 455 kts 264°
2026-05-06 10:17 52.75856 -36.71592 36281 ft 455 kts 264°
2026-05-06 10:17 52.75181 -36.81987 36281 ft 454 kts 264°
2026-05-06 10:18 52.74503 -36.92285 36280 ft 454 kts 264°
2026-05-06 10:18 52.73814 -37.02611 36285 ft 454 kts 264°
2026-05-06 10:19 52.73114 -37.12968 36302 ft 454 kts 264°
2026-05-06 10:19 52.72412 -37.23216 36318 ft 454 kts 264°
2026-05-06 10:20 52.71693 -37.33577 36319 ft 453 kts 264°
2026-05-06 10:20 52.70972 -37.43835 36319 ft 453 kts 264°
2026-05-06 10:21 52.70241 -37.54108 36318 ft 452 kts 264°
2026-05-06 10:21 52.69503 -37.64338 36318 ft 452 kts 264°
2026-05-06 10:22 52.68751 -37.74649 36321 ft 452 kts 263°
2026-05-06 10:22 52.67996 -37.84877 36321 ft 451 kts 263°
2026-05-06 10:23 52.67230 -37.95129 36320 ft 451 kts 263°
2026-05-06 10:23 52.66454 -38.05389 36313 ft 451 kts 264°
2026-05-06 10:24 52.65675 -38.15581 36304 ft 450 kts 264°
2026-05-06 10:24 52.64887 -38.25757 36300 ft 450 kts 264°
2026-05-06 10:25 52.64091 -38.35922 36299 ft 450 kts 264°
2026-05-06 10:25 52.63280 -38.46170 36298 ft 450 kts 264°
2026-05-06 10:26 52.62468 -38.56314 36298 ft 450 kts 264°
2026-05-06 10:26 52.61644 -38.66499 36299 ft 450 kts 263°
2026-05-06 10:27 52.60810 -38.76696 36301 ft 450 kts 263°
2026-05-06 10:27 52.59965 -38.86904 36300 ft 450 kts 263°
2026-05-06 10:28 52.59112 -38.97103 36300 ft 450 kts 263°
2026-05-06 10:28 52.58258 -39.07211 36300 ft 450 kts 263°
2026-05-06 10:29 52.57389 -39.17395 36299 ft 449 kts 263°
2026-05-06 10:29 52.56518 -39.27492 36299 ft 449 kts 263°
2026-05-06 10:30 52.55630 -39.37681 36298 ft 448 kts 263°
2026-05-06 10:30 52.54745 -39.47724 36297 ft 447 kts 264°
2026-05-06 10:31 52.53848 -39.57818 36297 ft 447 kts 264°
2026-05-06 10:31 52.52940 -39.67932 36301 ft 447 kts 263°
2026-05-06 10:32 52.52026 -39.77998 36301 ft 446 kts 263°
2026-05-06 10:32 52.51108 -39.88029 36301 ft 446 kts 263°
2026-05-06 10:33 52.50093 -39.98067 36301 ft 446 kts 258°
2026-05-06 10:33 52.48341 -40.07790 36300 ft 447 kts 255°
2026-05-06 10:34 52.46493 -40.17490 36299 ft 447 kts 255°
2026-05-06 10:34 52.44607 -40.27190 36299 ft 447 kts 255°
2026-05-06 10:35 52.42698 -40.36876 36298 ft 448 kts 255°
2026-05-06 10:35 52.40778 -40.46522 36298 ft 448 kts 255°
2026-05-06 10:36 52.38843 -40.56179 36298 ft 447 kts 255°
2026-05-06 10:36 52.36900 -40.65811 36298 ft 447 kts 254°
2026-05-06 10:37 52.34939 -40.75488 36302 ft 447 kts 254°
2026-05-06 10:37 52.32974 -40.85127 36300 ft 448 kts 254°
2026-05-06 10:38 52.31013 -40.94701 36292 ft 447 kts 254°
2026-05-06 10:38 52.29030 -41.04337 36283 ft 447 kts 254°
2026-05-06 10:39 52.27058 -41.13869 36280 ft 446 kts 254°
2026-05-06 10:39 52.25075 -41.23411 36280 ft 446 kts 255°
2026-05-06 10:40 52.23080 -41.32961 36280 ft 444 kts 255°
2026-05-06 10:40 52.21089 -41.42452 36280 ft 444 kts 255°
2026-05-06 10:41 52.19091 -41.51928 36279 ft 443 kts 255°
2026-05-06 10:41 52.17086 -41.61397 36278 ft 442 kts 255°
2026-05-06 10:42 52.15069 -41.70872 36285 ft 442 kts 254°
2026-05-06 10:42 52.13047 -41.80328 36285 ft 442 kts 254°
2026-05-06 10:43 52.11034 -41.89706 36284 ft 442 kts 254°
2026-05-06 10:44 52.07990 -42.03794 36283 ft 441 kts 254°
2026-05-06 10:44 52.05949 -42.13189 36283 ft 441 kts 254°
2026-05-06 10:45 52.03896 -42.22596 36283 ft 442 kts 255°
2026-05-06 10:45 52.01852 -42.31920 36282 ft 442 kts 255°
2026-05-06 10:46 51.99788 -42.41293 36282 ft 443 kts 255°
2026-05-06 10:46 51.97719 -42.50640 36282 ft 441 kts 255°
2026-05-06 10:47 51.95643 -42.59982 36280 ft 439 kts 255°
2026-05-06 10:47 51.93572 -42.69260 36288 ft 441 kts 254°
2026-05-06 10:48 51.91484 -42.78571 36287 ft 440 kts 255°
2026-05-06 10:48 51.89388 -42.87879 36281 ft 440 kts 255°
2026-05-06 10:49 51.87293 -42.97140 36278 ft 439 kts 255°
2026-05-06 10:49 51.85193 -43.06381 36275 ft 438 kts 255°
2026-05-06 10:50 51.83075 -43.15658 36272 ft 438 kts 255°
2026-05-06 10:50 51.80954 -43.24919 36494 ft 443 kts 255°
2026-05-06 10:50 51.79890 -43.29541 36732 ft 442 kts 255°
2026-05-06 10:51 51.78812 -43.34220 36914 ft 443 kts 255°
2026-05-06 10:51 51.77739 -43.38868 37057 ft 444 kts 255°
2026-05-06 10:51 51.76663 -43.43514 37215 ft 444 kts 255°
2026-05-06 10:51 51.75576 -43.48201 37355 ft 445 kts 254°
2026-05-06 10:52 51.74501 -43.52825 37521 ft 445 kts 254°
2026-05-06 10:52 51.73407 -43.57518 37660 ft 446 kts 254°
2026-05-06 10:52 51.72329 -43.62135 37787 ft 447 kts 254°
2026-05-06 10:52 51.71222 -43.66865 37889 ft 448 kts 253°
2026-05-06 10:53 51.70126 -43.71542 38030 ft 448 kts 253°
2026-05-06 10:53 51.69028 -43.76213 38183 ft 448 kts 253°
2026-05-06 10:53 51.67924 -43.80897 38283 ft 448 kts 253°
2026-05-06 10:54 51.65712 -43.90257 38298 ft 450 kts 253°
2026-05-06 10:54 51.63488 -43.99626 38296 ft 449 kts 253°
2026-05-06 10:55 51.61251 -44.09010 38293 ft 448 kts 253°
2026-05-06 10:55 51.59010 -44.18370 38291 ft 449 kts 253°
2026-05-06 10:56 51.56769 -44.27689 38290 ft 449 kts 253°
2026-05-06 10:56 51.54522 -44.36995 38290 ft 449 kts 253°
2026-05-06 10:57 51.52262 -44.46312 38289 ft 448 kts 253°
2026-05-06 10:57 51.50005 -44.55580 38289 ft 449 kts 253°
2026-05-06 10:58 51.47728 -44.64890 38288 ft 448 kts 253°
2026-05-06 10:58 51.45448 -44.74178 38294 ft 449 kts 252°
2026-05-06 10:59 51.43170 -44.83412 38294 ft 447 kts 252°
2026-05-06 10:59 51.40871 -44.92692 38292 ft 447 kts 252°
2026-05-06 11:00 51.38581 -45.01902 38284 ft 447 kts 252°
2026-05-06 11:00 51.36285 -45.11097 38276 ft 446 kts 252°
2026-05-06 11:01 51.33983 -45.20274 38272 ft 447 kts 252°
2026-05-06 11:01 51.31660 -45.29501 38271 ft 446 kts 252°
2026-05-06 11:02 51.29345 -45.38655 38271 ft 446 kts 252°
2026-05-06 11:02 51.27025 -45.47796 38270 ft 446 kts 252°
2026-05-06 11:03 51.24683 -45.56981 38270 ft 446 kts 252°
2026-05-06 11:03 51.22347 -45.66108 38271 ft 446 kts 252°
2026-05-06 11:04 51.19990 -45.75280 38275 ft 447 kts 252°
2026-05-06 11:04 51.17632 -45.84419 38275 ft 447 kts 252°
2026-05-06 11:05 51.15274 -45.93515 38240 ft 446 kts 252°
2026-05-06 11:05 51.12897 -46.02654 38190 ft 445 kts 252°
2026-05-06 11:06 51.10537 -46.11690 38144 ft 444 kts 252°
2026-05-06 11:06 51.08174 -46.20703 38141 ft 444 kts 252°
2026-05-06 11:07 51.05793 -46.29748 38141 ft 444 kts 252°
2026-05-06 11:07 51.03408 -46.38771 38140 ft 444 kts 252°
2026-05-06 11:08 51.01021 -46.47767 38141 ft 444 kts 252°
2026-05-06 11:08 50.98610 -46.56819 38141 ft 444 kts 252°
2026-05-06 11:09 50.96212 -46.65785 38142 ft 444 kts 251°
2026-05-06 11:09 50.93796 -46.74784 38150 ft 445 kts 251°
2026-05-06 11:10 50.91366 -46.83800 38150 ft 443 kts 251°
2026-05-06 11:10 50.88946 -46.92745 38141 ft 443 kts 251°
2026-05-06 11:11 50.86517 -47.01687 38138 ft 444 kts 251°
2026-05-06 11:11 50.84068 -47.10669 38136 ft 444 kts 251°
2026-05-06 11:12 50.81632 -47.19569 38136 ft 444 kts 251°
2026-05-06 11:12 50.79172 -47.28521 38136 ft 444 kts 251°
2026-05-06 11:13 50.76705 -47.37465 38135 ft 444 kts 251°
2026-05-06 11:13 50.74250 -47.46332 38135 ft 445 kts 251°
2026-05-06 11:14 50.71764 -47.55277 38134 ft 445 kts 251°
2026-05-06 11:14 50.69285 -47.64165 38134 ft 445 kts 251°
2026-05-06 11:15 50.66787 -47.73083 38140 ft 445 kts 250°
2026-05-06 11:15 50.64303 -47.81918 38140 ft 444 kts 250°
2026-05-06 11:16 50.61789 -47.90829 38140 ft 445 kts 251°
2026-05-06 11:16 50.59285 -47.99671 38139 ft 445 kts 251°
2026-05-06 11:17 50.56758 -48.08560 38137 ft 445 kts 250°
2026-05-06 11:17 50.54239 -48.17389 38134 ft 445 kts 250°
2026-05-06 11:18 50.51691 -48.26286 38131 ft 445 kts 250°
2026-05-06 11:18 50.49156 -48.35102 38130 ft 444 kts 250°
2026-05-06 11:19 50.46623 -48.43881 38130 ft 444 kts 250°
2026-05-06 11:19 50.44078 -48.52667 38130 ft 444 kts 250°
2026-05-06 11:20 50.41527 -48.61445 38129 ft 444 kts 250°
2026-05-06 11:20 50.38970 -48.70209 38136 ft 444 kts 250°
2026-05-06 11:21 50.36395 -48.79002 38139 ft 442 kts 250°
2026-05-06 11:21 50.33836 -48.87712 38142 ft 442 kts 250°
2026-05-06 11:22 50.31278 -48.96382 38145 ft 442 kts 250°
2026-05-06 11:22 50.28708 -49.05065 38148 ft 441 kts 249°
2026-05-06 11:23 50.26125 -49.13762 38156 ft 440 kts 249°
2026-05-06 11:23 50.23539 -49.22436 38166 ft 440 kts 249°
2026-05-06 11:24 50.20974 -49.31007 38167 ft 439 kts 249°
2026-05-06 11:24 50.18396 -49.39594 38166 ft 439 kts 249°
2026-05-06 11:25 50.15791 -49.48241 38165 ft 439 kts 249°
2026-05-06 11:25 50.13212 -49.56766 38165 ft 438 kts 249°
2026-05-06 11:26 50.10624 -49.65297 38165 ft 437 kts 249°
2026-05-06 11:26 50.08024 -49.73837 38172 ft 438 kts 249°
2026-05-06 11:27 50.05416 -49.82371 38172 ft 438 kts 249°
2026-05-06 11:27 50.02805 -49.90885 38171 ft 438 kts 249°
2026-05-06 11:28 50.00176 -49.99429 38171 ft 438 kts 249°
2026-05-06 11:28 49.97926 -50.08151 38170 ft 435 kts 254°
2026-05-06 11:29 49.95871 -50.16951 38169 ft 434 kts 254°
2026-05-06 11:29 49.93782 -50.25737 38169 ft 435 kts 253°
2026-05-06 11:30 49.91669 -50.34529 38168 ft 435 kts 253°
2026-05-06 11:30 49.89552 -50.43269 38166 ft 435 kts 253°
2026-05-06 11:31 49.87427 -50.51991 38166 ft 435 kts 253°
2026-05-06 11:31 49.85279 -50.60762 38169 ft 435 kts 253°
2026-05-06 11:32 49.83127 -50.69512 38180 ft 436 kts 252°
2026-05-06 11:32 49.80973 -50.78232 38182 ft 435 kts 252°
2026-05-06 11:33 49.78797 -50.87009 38185 ft 436 kts 252°
2026-05-06 11:33 49.76635 -50.95692 38186 ft 435 kts 252°
2026-05-06 11:34 49.74459 -51.04395 38187 ft 435 kts 252°
2026-05-06 11:34 49.72267 -51.13132 38187 ft 435 kts 252°
2026-05-06 11:35 49.70092 -51.21763 38186 ft 434 kts 252°
2026-05-06 11:35 49.67903 -51.30423 38186 ft 434 kts 251°
2026-05-06 11:36 49.65704 -51.39086 38185 ft 435 kts 251°
2026-05-06 11:36 49.63495 -51.47751 38185 ft 434 kts 251°
2026-05-06 11:37 49.61284 -51.56394 38184 ft 434 kts 251°
2026-05-06 11:37 49.59061 -51.65050 38183 ft 434 kts 250°
2026-05-06 11:38 49.56838 -51.73676 38191 ft 434 kts 250°
2026-05-06 11:38 49.54615 -51.82266 38190 ft 433 kts 250°
2026-05-06 11:39 49.52377 -51.90884 38188 ft 434 kts 250°
2026-05-06 11:39 49.50144 -51.99450 38185 ft 434 kts 250°
2026-05-06 11:40 49.47991 -52.08063 38182 ft 433 kts 251°
2026-05-06 11:40 49.45864 -52.16691 38180 ft 433 kts 251°
2026-05-06 11:41 49.43726 -52.25310 38180 ft 433 kts 251°
2026-05-06 11:41 49.41578 -52.33929 38179 ft 433 kts 251°
2026-05-06 11:42 49.39422 -52.42540 38178 ft 433 kts 251°
2026-05-06 11:42 49.37261 -52.51137 38177 ft 433 kts 251°
2026-05-06 11:43 49.35095 -52.59716 38177 ft 433 kts 251°
2026-05-06 11:43 49.32916 -52.68319 38184 ft 433 kts 251°
2026-05-06 11:44 49.29638 -52.81190 38183 ft 432 kts 251°
2026-05-06 11:44 49.27445 -52.89765 38175 ft 432 kts 251°
2026-05-06 11:45 49.25253 -52.98300 38169 ft 432 kts 250°
2026-05-06 11:45 49.23068 -53.06778 38167 ft 431 kts 251°
2026-05-06 11:46 49.20863 -53.15300 38172 ft 431 kts 251°
2026-05-06 11:46 49.18667 -53.23758 38178 ft 431 kts 251°
2026-05-06 11:47 49.16447 -53.32275 38185 ft 431 kts 251°
2026-05-06 11:47 49.14241 -53.40708 38190 ft 430 kts 251°
2026-05-06 11:48 49.12010 -53.49205 38196 ft 430 kts 251°
2026-05-06 11:48 49.09790 -53.57628 38197 ft 429 kts 250°
2026-05-06 11:49 49.07569 -53.66025 38199 ft 429 kts 250°
2026-05-06 11:49 49.05320 -53.74496 38205 ft 430 kts 250°
2026-05-06 11:50 49.03085 -53.82884 38204 ft 430 kts 250°
2026-05-06 11:50 49.00838 -53.91286 38204 ft 430 kts 250°
2026-05-06 11:51 48.98582 -53.99695 38203 ft 430 kts 250°
2026-05-06 11:51 48.96336 -54.08033 38190 ft 425 kts 250°
2026-05-06 11:52 48.94085 -54.16360 38173 ft 426 kts 250°
2026-05-06 11:52 48.91834 -54.24657 38155 ft 425 kts 250°
2026-05-06 11:53 48.89575 -54.32957 38152 ft 427 kts 250°
2026-05-06 11:53 48.87300 -54.41282 38150 ft 426 kts 250°
2026-05-06 11:54 48.85031 -54.49560 38149 ft 426 kts 250°
2026-05-06 11:54 48.82755 -54.57832 38149 ft 426 kts 250°
2026-05-06 11:55 48.80463 -54.66134 38150 ft 426 kts 249°
2026-05-06 11:55 48.78172 -54.74404 38156 ft 426 kts 249°
2026-05-06 11:56 48.75893 -54.82598 38156 ft 425 kts 249°
2026-05-06 11:56 48.73585 -54.90872 38155 ft 425 kts 249°
2026-05-06 11:57 48.71294 -54.99057 38153 ft 425 kts 249°
2026-05-06 11:57 48.68988 -55.07263 38143 ft 425 kts 249°
2026-05-06 11:58 48.66678 -55.15461 38133 ft 424 kts 249°
2026-05-06 11:58 48.64357 -55.23664 38124 ft 424 kts 249°
2026-05-06 11:59 48.62041 -55.31824 38122 ft 424 kts 249°
2026-05-06 11:59 48.59719 -55.39975 38118 ft 424 kts 248°
2026-05-06 12:00 48.57381 -55.48157 38116 ft 425 kts 248°
2026-05-06 12:00 48.55040 -55.56324 38113 ft 425 kts 248°
2026-05-06 12:01 48.52690 -55.64489 38110 ft 425 kts 248°
2026-05-06 12:01 48.50329 -55.72669 38117 ft 427 kts 248°
2026-05-06 12:02 48.47961 -55.80841 38114 ft 426 kts 248°
2026-05-06 12:02 48.45589 -55.89004 38113 ft 427 kts 248°
2026-05-06 12:03 48.43200 -55.97195 38116 ft 427 kts 248°
2026-05-06 12:03 48.40825 -56.05313 38129 ft 427 kts 248°
2026-05-06 12:04 48.38421 -56.13501 38143 ft 427 kts 248°
2026-05-06 12:04 48.36025 -56.21634 38151 ft 427 kts 247°
2026-05-06 12:05 48.33623 -56.29762 38151 ft 426 kts 247°
2026-05-06 12:05 48.31228 -56.37838 38150 ft 426 kts 247°
2026-05-06 12:06 48.28801 -56.45993 38149 ft 426 kts 247°
2026-05-06 12:06 48.26386 -56.54084 38148 ft 425 kts 247°
2026-05-06 12:07 48.23974 -56.62141 38147 ft 425 kts 247°
2026-05-06 12:07 48.21555 -56.70188 38155 ft 425 kts 246°
2026-05-06 12:08 48.19128 -56.78241 38155 ft 425 kts 246°
2026-05-06 12:08 48.16698 -56.86276 38154 ft 425 kts 246°
2026-05-06 12:09 48.14240 -56.94375 38149 ft 425 kts 246°
2026-05-06 12:09 48.11807 -57.02367 38138 ft 425 kts 246°
2026-05-06 12:10 48.09362 -57.10376 38128 ft 425 kts 246°
2026-05-06 12:10 48.06900 -57.18408 38122 ft 425 kts 246°
2026-05-06 12:11 48.04450 -57.26381 38121 ft 425 kts 246°
2026-05-06 12:11 48.01965 -57.34437 38120 ft 426 kts 246°
2026-05-06 12:12 47.99489 -57.42443 38117 ft 426 kts 245°
2026-05-06 12:12 47.97004 -57.50451 38127 ft 429 kts 245°
2026-05-06 12:13 47.94493 -57.58514 38135 ft 429 kts 245°
2026-05-06 12:13 47.91982 -57.66551 38147 ft 427 kts 245°
2026-05-06 12:14 47.89469 -57.74572 38162 ft 428 kts 245°
2026-05-06 12:14 47.86966 -57.82535 38172 ft 428 kts 245°
2026-05-06 12:15 47.84446 -57.90526 38176 ft 426 kts 245°
2026-05-06 12:15 47.81929 -57.98480 38170 ft 427 kts 245°
2026-05-06 12:16 47.79411 -58.06416 38160 ft 427 kts 245°
2026-05-06 12:16 47.76877 -58.14376 38154 ft 427 kts 245°
2026-05-06 12:17 47.74335 -58.22337 38153 ft 428 kts 245°
2026-05-06 12:17 47.71778 -58.30319 38153 ft 428 kts 245°
2026-05-06 12:18 47.69224 -58.38265 38151 ft 428 kts 245°
2026-05-06 12:18 47.66665 -58.46205 38151 ft 429 kts 245°
2026-05-06 12:19 47.64092 -58.54161 38150 ft 429 kts 244°
2026-05-06 12:19 47.61519 -58.62091 38157 ft 430 kts 244°
2026-05-06 12:20 47.58921 -58.70075 38163 ft 430 kts 244°
2026-05-06 12:20 47.56330 -58.78014 38163 ft 430 kts 244°
2026-05-06 12:21 47.53725 -58.85969 38163 ft 432 kts 243°
2026-05-06 12:21 47.51107 -58.93943 38161 ft 432 kts 243°
2026-05-06 12:22 47.48499 -59.01858 38161 ft 430 kts 243°
2026-05-06 12:22 47.45863 -59.09834 38160 ft 430 kts 243°
2026-05-06 12:23 47.43236 -59.17755 38159 ft 430 kts 243°
2026-05-06 12:23 47.40609 -59.25657 38158 ft 429 kts 243°
2026-05-06 12:24 47.37991 -59.33506 38158 ft 429 kts 243°
2026-05-06 12:24 47.35359 -59.41373 38157 ft 429 kts 243°
2026-05-06 12:25 47.32710 -59.49268 38156 ft 429 kts 243°
2026-05-06 12:25 47.30076 -59.57095 38155 ft 428 kts 243°
2026-05-06 12:26 47.27420 -59.64961 38154 ft 428 kts 243°
2026-05-06 12:26 47.24770 -59.72786 38161 ft 428 kts 242°
2026-05-06 12:27 47.22131 -59.80555 38160 ft 428 kts 242°
2026-05-06 12:27 47.19459 -59.88397 38160 ft 430 kts 242°
2026-05-06 12:28 47.16791 -59.96206 38158 ft 429 kts 242°
2026-05-06 12:28 47.14108 -60.04033 38155 ft 427 kts 242°
2026-05-06 12:29 47.11445 -60.11780 38149 ft 427 kts 242°
2026-05-06 12:29 47.08769 -60.19542 38141 ft 427 kts 242°
2026-05-06 12:30 47.06081 -60.27315 38135 ft 427 kts 242°
2026-05-06 12:30 47.03384 -60.35092 38135 ft 428 kts 242°
2026-05-06 12:31 47.00686 -60.42849 38133 ft 428 kts 242°
2026-05-06 12:31 46.97968 -60.50640 38132 ft 428 kts 242°
2026-05-06 12:32 46.95271 -60.58348 38131 ft 428 kts 242°
2026-05-06 12:32 46.92553 -60.66091 38133 ft 428 kts 242°
2026-05-06 12:33 46.89826 -60.73840 38138 ft 428 kts 242°
2026-05-06 12:33 46.87109 -60.81536 38144 ft 428 kts 242°
2026-05-06 12:34 46.84391 -60.89214 38145 ft 428 kts 242°
2026-05-06 12:34 46.81652 -60.96929 38147 ft 427 kts 242°